Camarillo, CA

5:16 PM PDT on June 28, 2017 (GMT -0700)
Camarillo

Weather History for KCMA - January, 2013

Change the Weather History Date:

Saturday, January 5, 2013

  Actual Average Record
Temperature  
Mean Temperature 49 °F 54 °F  
Max Temperature 64 °F 65 °F 82 °F (2015)
Min Temperature 33 °F 44 °F 31 °F (1960)
Degree Days  
Heating Degree Days 16 11  
Month to date heating degree days 61 55  
Since 1 July heating degree days 607 736  
Cooling Degree Days 0 0  
Month to date cooling degree days 0 0  
Year to date cooling degree days 0 0  
Moisture  
Dew Point 34 °F    
Average Humidity 51    
Maximum Humidity 74    
Minimum Humidity 27    
Precipitation  
Precipitation T in 0.14 in 0.92 in (2016)
Month to date precipitation T 0.72  
Year to date precipitation T 0.72  
Since 1 July precipitation 2.71  
Sea Level Pressure  
Sea Level Pressure 30.26 in    
Wind  
Wind Speed 3 mph (West)    
Max Wind Speed 13 mph    
Max Gust Speed -    
Visibility 10 miles    
Events      
T = Trace of Precipitation, MM = Missing Value Source: NWS Daily Summary

Daily Weather History Graph

Daily Weather History Graph

Search for Another Location

Airport or City:

Trip Planner

Search our weather history database for the weather conditions in past years. The results will help you decide how hot, cold, wet, or windy it might be!

Date:

Astronomy

Jan. 05, 2013 Rise Set
Actual Time 7:02 AM PST 5:01 PM PST
Civil Twilight 6:35 AM PST 5:28 PM PST
Nautical Twilight 6:04 AM PST 5:59 PM PST
Astronomical Twilight 5:33 AM PST 6:30 PM PST
Moon 12:23 AM PST (1/5) 11:46 AM PST (1/5)
Length of Visible Light 10h 53m
Length of Day
9h 58m
Last Quarter, 43% of the Moon is Illuminated
Jan 5
Last Quarter
Jan 11
New
Jan 18
First Quarter
Jan 26
Full
Feb 3
Last Quarter

Hourly Weather History & Observations

Time (PST) Temp. Windchill Dew Point Humidity Pressure Visibility Wind Dir Wind Speed Gust Speed Precip Events Conditions
12:55 AM 39.0 °F - 28.9 °F 67% 30.25 in 10.0 mi Calm Calm - N/A   Clear
1:55 AM 42.1 °F 40.2 °F 26.1 °F 53% 30.27 in 10.0 mi West 3.5 mph - N/A   Clear
2:55 AM 39.9 °F - 27.0 °F 60% 30.28 in 10.0 mi Calm Calm - N/A   Clear
5:55 AM 41.0 °F 38.0 °F 23.0 °F 49% 30.29 in 10.0 mi NE 4.6 mph - N/A   Clear
6:55 AM 36.0 °F - 25.0 °F 64% 30.30 in 10.0 mi Calm Calm - N/A   Clear
7:55 AM 37.9 °F - 28.0 °F 68% 30.31 in 10.0 mi Calm Calm - N/A   Clear
8:55 AM 46.9 °F - 28.9 °F 50% 30.33 in 10.0 mi Calm Calm - N/A   Clear
9:55 AM 55.0 °F - 23.0 °F 29% 30.33 in 10.0 mi Calm Calm - N/A   Clear
10:55 AM 59.0 °F - 37.0 °F 44% 30.31 in 10.0 mi Calm Calm - N/A   Clear
11:55 AM 61.0 °F - 34.0 °F 36% 30.27 in 10.0 mi Calm Calm - N/A   Clear
12:55 PM 63.0 °F - 41.0 °F 45% 30.24 in 10.0 mi SW 6.9 mph - N/A   Clear
1:55 PM 61.0 °F - 37.9 °F 42% 30.24 in 10.0 mi WSW 9.2 mph - N/A   Clear
2:55 PM 61.0 °F - 39.0 °F 44% 30.22 in 10.0 mi WSW 3.5 mph - N/A   Clear
3:55 PM 60.1 °F - 37.0 °F 42% 30.22 in 10.0 mi WSW 3.5 mph - N/A   Clear
4:55 PM 57.0 °F - 36.0 °F 45% 30.22 in 10.0 mi WSW 4.6 mph - N/A   Clear
5:55 PM 54.0 °F - 39.0 °F 57% 30.22 in 10.0 mi Calm Calm - N/A   Clear
6:55 PM 50.0 °F - 41.0 °F 71% 30.22 in 10.0 mi Calm Calm - N/A   Clear
7:55 PM 50.0 °F - 41.0 °F 71% 30.22 in 9.0 mi NNE 3.5 mph - N/A   Clear
8:55 PM 50.0 °F - 43.0 °F 77% 30.24 in 10.0 mi East 3.5 mph - N/A   Clear
10:55 PM 48.0 °F - 39.9 °F 74% 30.24 in 10.0 mi WNW 5.8 mph - N/A   Overcast